Location: Dietenhausen
(48.9150°N, 8.5578°E)
Time: 10:55:03
(UTC+00:00)

Daily predictions for brighter satellites

Satellite Brightness Start Highest point End
(mag) Time Altitude Azimuth Time Altitude Azimuth Time Altitude Azimuth
Meteor 2-5 Rocket 4.2 20:07:55 10° SSE 20:13:02 41° E 20:18:13 10° NNE
ERBS 4.4 20:14:44 10° W 20:16:40 16° SW 20:18:36 10° S
Cosmos 1943 3.5 20:16:55 10° SSW 20:22:36 78° WNW 20:28:17 10° NNE
Okean 1 Rocket 4.2 20:20:57 10° NNW 20:25:15 45° W 20:29:30 10° SSW
USA 267 3.7 20:20:10 10° ENE 20:26:13 38° SE 20:32:14 10° SSW
Cosmos 1603 3.9 20:21:58 10° SSW 20:27:40 80° WNW 20:33:27 10° NNE
Cosmos 1953 3.9 20:25:19 10° NNW 20:28:54 33° W 20:32:27 10° SSW
Cosmos 1455 Rocket 3.0 20:25:06 10° N 20:29:29 75° E 20:33:49 10° SSE
CZ-4B R/B 2.2 20:30:20 10° N 20:33:09 44° WNW 20:35:53 10° SW
USA 245 3.8 20:29:06 10° SSE 20:34:11 85° WSW 20:38:17 10° NNW
S3M 4.2 20:31:08 10° SSW 20:37:20 75° W 20:43:31 10° N
Cosmos 1025 Rocket 3.1 20:34:04 10° S 20:38:16 62° E 20:42:31 10° NNE
NOSS 2-1 (D) 4.5 20:35:45 10° NNW 20:39:53 49° NE 20:45:35 10° ESE
Cosmos 1371 Rocket 4.1 20:37:27 10° S 20:42:32 56° ESE 20:47:42 10° NNE
Spot 2 Rocket 3.5 20:38:14 10° SSE 20:43:18 82° ENE 20:48:27 10° NNW
IRAS Rocket 4.5 20:39:22 10° NNE 20:45:01 78° WNW 20:50:35 10° SSW
Cosmos 1607 4.1 20:43:08 10° SSW 20:49:07 50° ESE 20:55:04 10° NE
Helios 1A Rocket 2.9 20:45:45 10° SSE 20:49:45 90° ENE 20:53:52 10° NNW
Cosmos 1455 2.3 20:49:12 10° N 20:52:59 60° ENE 20:56:08 14° SSE
Cosmos 1980 Rocket 4.4 20:50:58 10° N 20:54:44 18° NE 20:58:29 10° ENE
ATLAS 2AS CENTAUR R/B 2.8 20:47:46 10° NW 20:55:01 76° NE 21:01:13 12° SE
Cosmos 1536 Rocket 4.4 20:53:22 13° SSE 20:56:40 34° E 21:00:35 10° NNE
Cosmos 2369 Rocket 4.5 20:54:00 10° WNW 20:57:32 17° W 21:01:05 10° SW
SPOT 3 Rocket 4.2 20:52:39 10° S 20:57:42 53° W 21:02:48 10° NNW
Cosmos 1697 Rocket 4.2 20:54:33 10° NNW 20:59:20 27° NE 21:04:06 10° ESE
USA 234 3.5 20:55:04 10° ESE 21:01:36 73° NNE 21:08:09 10° NW
Lacrosse 4 Rocket 3.7 20:58:09 10° WSW 21:01:44 28° NW 21:05:17 10° NNE
H-2A R/B 4.5 20:58:46 10° N 21:02:18 25° WNW 21:05:53 10° WSW
Meteor 1-24 Rocket 3.6 20:57:36 10° S 21:02:54 89° E 21:08:20 10° NNE
Cosmos 1975 Rocket 3.5 20:58:35 10° SSW 21:03:01 63° WNW 21:07:27 10° N
Cosmos 1624 Rocket 4.0 20:58:42 10° SSW 21:03:56 77° ESE 21:09:10 10° NNE
SPOT 5 3.0 21:00:59 10° S 21:05:24 64° WSW 21:09:45 10° NNW
Cosmos 1190 Rocket 4.4 21:01:21 10° NNW 21:06:35 59° WSW 21:11:23 12° S
Cosmos 2184 Rocket 4.2 21:04:46 10° N 21:10:53 61° ENE 21:15:55 16° SSE
X-37B 2.6 21:11:14 10° SSW 21:11:34 12° SSW 21:11:34 12° SSW
Cosmos 2228 3.8 21:09:30 10° N 21:13:29 37° ENE 21:16:17 17° SE
CZ-2C R/B 3.7 21:09:41 10° NNE 21:14:22 84° ESE 21:18:54 10° SSW
Resurs 01 Rocket 4.2 21:14:41 10° WSW 21:17:10 15° W 21:19:38 10° NW
RESURS DK-1 3.8 21:13:37 10° NNW 21:17:18 30° NE 21:20:38 12° ESE
Cosmos 1544 Rocket 3.9 21:16:30 10° NNW 21:20:48 63° W 21:24:27 14° S
Lacrosse 5 rocket 1.4 21:17:47 10° WNW 21:21:36 61° SW 21:24:15 20° SE
ATLAS 5 CENTAUR R/B 4.2 21:11:11 10° NW 21:22:30 36° WSW 21:26:13 12° S
Cosmos 1656 3.8 21:17:06 10° NNW 21:22:33 65° ENE 21:26:45 17° SE
Cosmos 2056 Rocket 3.8 21:18:32 10° SSW 21:23:54 76° WNW 21:29:22 10° NNE
Cosmos 1741 Rocket 4.4 21:22:29 10° NNW 21:27:43 55° ENE 21:31:37 18° SE
ERS-1 Rocket 3.7 21:24:22 11° S 21:28:59 48° W 21:33:53 10° NNW
Cosmos 1833 Rocket 3.7 21:27:39 18° SSE 21:30:31 27° ESE 21:35:12 10° NE
Lacrosse 5 1.9 21:27:23 10° NW 21:32:31 81° SW 21:36:18 18° SE
Cosmos 676 Rocket 4.4 21:28:05 10° NNW 21:33:19 58° WSW 21:37:18 17° S
Cosmos 1420 Rocket 4.2 21:29:52 10° SSW 21:35:05 75° WNW 21:40:25 10° NNE
Tiangong 2.6 21:33:59 10° SW 21:36:05 21° SSW 21:36:05 21° SSW
Cosmos 2084 3.0 21:34:09 10° SW 21:37:59 79° SE 21:41:52 10° NE
NOSS 2-1 (E) 4.1 21:33:58 10° NW 21:38:30 78° SW 21:43:01 19° SSE
SL-8 R/B 3.6 21:34:31 10° W 21:39:21 86° S 21:44:12 10° E
Cosmos 1271 Rocket 3.9 21:40:22 10° NNW 21:44:04 37° W 21:47:01 15° SSW
Cosmos 2082 Rocket 3.9 21:45:07 14° ESE 21:47:00 16° E 21:50:24 10° ENE
FALCON 9 DEB 4.0 21:46:23 10° W 21:49:34 49° NNW 21:52:46 10° ENE
ARIANE 5 R/B 3.4 21:46:38 16° SSW 21:49:55 45° W 21:54:13 10° NNW
Terra 2.9 21:46:06 13° SSW 21:49:59 37° W 21:54:26 10° NNW
Cosmos 2058 Rocket 4.2 21:52:00 10° N 21:55:58 32° ENE 21:58:21 20° ESE
USA 276 2.7 21:58:54 33° ESE 21:58:54 33° ESE 22:00:57 10° E
Cosmos 2344 4.4 21:49:48 10° NW 21:58:25 73° NE 22:10:08 11° SE
Cosmos 1850 Rocket 4.0 21:54:37 10° NNW 21:59:52 83° WSW 22:03:00 24° SSE
SAR-Lupe-4 3.6 21:58:03 10° NNE 22:01:39 81° WNW 22:03:44 24° SSW
Cosmos 2074 Rocket 4.4 21:56:44 10° NNW 22:02:53 58° W 22:07:42 17° SSW
Cosmos 1892 Rocket 4.2 22:02:20 26° SE 22:04:19 41° E 22:08:28 10° NNE
GP-B 3.4 22:00:30 10° N 22:04:53 55° E 22:07:04 27° SSE
USA 267 3.4 22:03:03 10° NE 22:09:36 81° NNW 22:16:10 10° WSW
Cosmos 1408 3.4 22:13:04 28° ESE 22:13:52 32° E 22:16:59 10° NNE
Spot 4 3.9 22:11:56 26° SSE 22:14:35 68° ENE 22:19:22 10° N
COSMOS 2406 3.9 22:13:19 24° SSE 22:15:59 37° ESE 22:21:14 10° NE
ADEOS Rocket 3.8 22:15:50 19° SE 22:20:52 59° ENE 22:28:18 10° N
Cosmos 962 Rocket 4.5 22:15:01 10° N 22:21:15 81° E 22:25:08 25° SSE
ASTEX 1 3.4 22:16:24 10° N 22:21:26 82° W 22:24:31 24° SSW
Cosmos 1331 Rocket 4.0 22:19:08 23° S 22:22:25 71° ESE 22:27:42 10° NNE
TSX-5 4.4 22:19:37 15° SW 22:23:18 79° WNW 22:29:01 10° NNE
Cosmos 2154 Rocket 4.4 22:17:31 10° NNW 22:23:38 57° W 22:27:53 20° SSW
Nadezhda 1 Rocket 4.1 22:18:57 17° SSW 22:23:43 71° W 22:29:48 10° N
Cosmos 2369 4.1 22:18:18 10° NNW 22:23:58 58° ENE 22:27:54 20° SE
Meteor 1-11 4.4 22:22:19 26° SSE 22:25:23 56° E 22:30:52 10° NNE
Cosmos 1452 Rocket 3.8 22:21:03 13° SSW 22:25:46 68° WNW 22:31:02 10° NNE
Cosmos 1825 3.6 22:26:15 21° ESE 22:27:10 24° E 22:30:12 10° NE
SL-16 R/B 4.3 22:23:32 10° N 22:27:55 22° NE 22:32:16 10° E
Cosmos 1328 3.9 22:28:57 28° SSW 22:30:57 73° W 22:34:59 10° N
H-2A R/B 3.9 22:27:40 10° NNE 22:31:45 48° E 22:33:14 32° SSE
Cosmos 1980 Rocket 2.4 22:34:10 10° NNW 22:39:53 67° ENE 22:43:32 23° SE
Cosmos 1110 Rocket 4.1 22:37:53 19° SSW 22:41:39 77° WNW 22:46:59 10° NNE
Cosmos 1606 Rocket 4.4 22:37:56 10° NNW 22:42:00 41° W 22:44:04 24° SSW
Cosmos 1697 Rocket 2.8 22:38:12 10° NNW 22:43:47 65° WSW 22:46:39 29° S
ERS-2 3.1 22:41:08 10° NE 22:44:20 30° E 22:44:57 28° ESE
USA 234 3.7 22:41:26 25° SSE 22:44:53 45° SW 22:51:09 10° WNW
ATLAS 2AS CENTAUR R/B 3.9 22:39:31 10° WNW 22:45:15 28° WSW 22:48:38 18° SSW
Cosmos 1302 Rocket 4.2 22:43:52 30° S 22:46:17 57° ESE 22:51:22 10° NNE
Cosmos 1892 2.5 22:48:56 42° S 22:50:06 78° E 22:53:52 10° NNE
Celestis-02/Orion 38 4.5 22:48:32 28° SSE 22:51:17 83° WSW 22:56:25 10° NNW
SJ 16-02 3.8 22:50:17 10° N 22:53:14 17° NE 22:56:11 10° E
RESURS DK-1 3.3 22:51:34 10° NW 22:55:19 34° WSW 22:56:28 29° SW
In-Cosmos 22 Rocket 4.3 22:52:54 29° S 22:55:47 67° E 23:01:17 10° NNE
Lacrosse 5 rocket 3.7 22:59:04 10° WSW 22:59:45 11° WSW 22:59:45 11° WSW
SL-8 Rocket 4.0 22:54:25 10° NNW 23:00:42 75° W 23:04:12 27° S
Cosmos 2218 Rocket 4.1 23:00:03 10° NNW 23:06:29 80° W 23:10:07 28° S
ALOS 2 2.9 23:07:30 34° SSW 23:09:12 57° W 23:13:33 10° NNW
Cosmos 2322 Rocket 3.9 23:04:35 10° NNW 23:09:30 29° NE 23:14:24 10° ESE
Cosmos 2341 Rocket 4.4 23:03:44 10° NNW 23:09:54 55° W 23:13:32 25° SSW
Cosmos 2278 3.9 23:04:11 10° NNW 23:09:55 69° ENE 23:13:40 22° SE
Cosmos 1833 Rocket 3.2 23:09:17 13° SW 23:14:07 55° NW 23:19:40 10° NNE
Cosmos 2366 rocket 4.1 23:08:19 10° NNW 23:14:36 71° W 23:18:08 28° S
Lacrosse 5 3.4 23:11:19 10° W 23:14:51 19° WSW 23:15:28 18° SW
Cosmos 2084 Rocket 3.1 23:14:07 10° NW 23:18:02 84° SW 23:19:33 37° SE
Cosmos 1812 Rocket 3.8 23:14:24 10° N 23:18:52 64° ENE 23:20:47 32° SSE
SL-8 R/B 3.7 23:17:03 10° W 23:21:46 56° SSW 23:24:35 23° SE
Cosmos 968 Rocket 3.9 23:21:00 10° NNW 23:26:00 50° WSW 23:28:10 31° SSW
FALCON 9 DEB 4.4 23:23:06 10° WNW 23:26:14 40° N 23:29:22 10° E
Cosmos 2082 Rocket 2.2 23:26:56 26° SSW 23:30:16 89° WNW 23:36:02 10° NNE
ATLAS 5 CENTAUR R/B 2.6 23:30:58 24° ESE 23:31:09 24° ESE 23:34:26 10° ENE
Cosmos 1633 2.5 23:31:19 48° SSE 23:32:03 65° E 23:35:32 10° NNE
Resurs 1-4 Rocket 4.4 23:30:18 10° ENE 23:32:21 12° E 23:34:24 10° ESE
USA 276 2.0 23:30:26 10° W 23:33:22 73° N 23:36:16 10° E
Cosmos 1602 Rocket 3.5 23:32:14 38° S 23:33:50 80° E 23:38:10 10° NNE
Cosmos 2058 Rocket 4.4 23:30:07 10° NNW 23:33:52 28° W 23:35:36 21° SW
Cosmos 1869 4.0 23:37:46 10° NNW 23:41:24 40° W 23:42:27 33° SW
Cosmos 1486 Rocket 3.9 23:39:09 10° NNW 23:44:22 76° WSW 23:46:54 31° S
Cosmos 2360 Rocket 3.6 23:46:03 10° NNW 23:51:18 36° NE 23:56:31 10° ESE
USA 267 4.3 23:46:04 10° ENE 23:52:16 47° N 23:58:28 10° W
Cosmos 1934 Rocket 4.2 23:47:51 10° N 23:53:54 63° ENE 23:57:56 22° SSE
Cosmos 1238 4.0 23:55:46 62° S 23:56:12 82° E 23:59:15 10° N
